Home > Weather > Schwabach > Past weeks

Flag for Germany Weather for the Past 2 Weeks in Schwabach, Bavaria, Germany

Now
63 °F

Passing clouds.


Feels Like: 63 °F
Forecast: 48 / 71 °F
Wind: 10 mph from East

Location: Nuernberg

Current Time: May 5, 2016 at 8:22:02 PM

Latest Report: May 5, 2016 at 7:50 PM


Visibility: N/A

Pressure: 30.15 "Hg

Humidity: 49%

Dew Point: 43 °F

Location of SchwabachLocation

Historic Weather in Schwabach — Graph

°F

Schwabach Temperature Yesterday

Maximum temperature yesterday: 59 °F (at 4:50 PM)
Minimum temperature yesterday: 41 °F (at 5:50 AM)
Average temperature yesterday: 50 °F

High & Low Weather Summary for the Past Weeks

 TemperatureHumidityPressure
High66 °F (Apr 21, 3:50 PM)100% (Apr 24, 4:50 AM)30.36 "Hg (Apr 24, 4:50 AM)
Low28 °F (Apr 29, 5:20 AM)22% (Apr 21, 4:20 PM)29.50 "Hg (Apr 26, 6:50 AM)
Average47 °F65%30.00 "Hg
* Reported Apr 20 7:20 PM — May 5 7:20 PM, Schwabach, Weather by CustomWeather, © 2016

Note: Actual official high and low records may vary slightly from our data, if they occured in-between our weather recording intervals... More about our weather records

Advertising

Schwabach Weather History for the Previous 24 Hours

Scroll right to see more
 ConditionsComfort  
Time TempWeatherWind HumidityBarometerVisibility
7:20 PM
Thu, May 5
63 °FPassing clouds.10 mph52%30.15 "HgN/A
6:50 PM63 °FPassing clouds.9 mph49%30.15 "HgN/A
6:20 PM64 °FPassing clouds.10 mph46%30.15 "HgN/A
5:50 PM64 °FPassing clouds.10 mph46%30.18 "HgN/A
5:20 PM64 °FPassing clouds.14 mph49%30.18 "HgN/A
4:50 PM64 °FPassing clouds.13 mph46%30.18 "HgN/A
4:20 PM64 °FPassing clouds.12 mph46%30.18 "HgN/A
3:50 PM63 °FPassing clouds.15 mph45%30.21 "HgN/A
3:20 PM63 °FPassing clouds.13 mph45%30.21 "HgN/A
2:50 PM63 °FPassing clouds.14 mph45%30.21 "HgN/A
2:20 PM63 °FPassing clouds.13 mph45%30.24 "HgN/A
1:50 PM63 °FPassing clouds.13 mph45%30.24 "HgN/A
1:20 PM61 °FPassing clouds.12 mph48%30.24 "HgN/A
12:50 PM61 °FPassing clouds.14 mph48%30.24 "HgN/A
12:20 PM59 °FPassing clouds.12 mph48%30.27 "HgN/A
11:50 AM59 °FPassing clouds.14 mph51%30.27 "HgN/A
11:20 AM59 °FPassing clouds.12 mph51%30.27 "HgN/A
10:50 AM55 °FPassing clouds.10 mph59%30.30 "HgN/A
10:20 AM55 °FPassing clouds.12 mph59%30.30 "HgN/A
9:50 AM55 °FPassing clouds.15 mph59%30.30 "HgN/A
9:20 AM52 °FPassing clouds.13 mph62%30.30 "HgN/A
8:50 AM52 °FPassing clouds.12 mph58%30.30 "HgN/A
8:20 AM50 °FPassing clouds.8 mph67%30.33 "HgN/A
7:50 AM48 °FPassing clouds.6 mph71%30.33 "HgN/A
7:20 AM45 °FPartly sunny.2 mph76%30.33 "HgN/A
6:50 AM43 °FSunny.1 mph81%30.33 "Hg10 mi
6:20 AM43 °FPassing clouds.3 mph81%30.33 "HgN/A
5:50 AM41 °FClear.1 mph87%30.33 "Hg10 mi
5:20 AM41 °FClear.1 mph81%30.33 "Hg10 mi
4:50 AM41 °FClear.1 mph81%30.33 "Hg10 mi
4:20 AM41 °FClear.2 mph76%30.33 "Hg10 mi
3:50 AM41 °FClear.1 mph81%30.33 "Hg10 mi
3:20 AM43 °FClear.2 mph76%30.33 "Hg10 mi
2:50 AM43 °FClear.2 mph71%30.33 "Hg10 mi
2:20 AM43 °FClear.1 mph76%30.33 "Hg10 mi
1:50 AM41 °FClear.No wind76%30.33 "Hg10 mi
1:20 AM41 °FClear.No wind76%30.36 "Hg10 mi
12:50 AM41 °FClear.2 mph76%30.36 "Hg10 mi
12:20 AM45 °FClear.6 mph66%30.36 "Hg10 mi
11:50 PM
Wed, May 4
45 °FClear.7 mph66%30.36 "Hg10 mi
11:20 PM45 °FClear.7 mph61%30.36 "Hg10 mi
10:50 PM45 °FPassing clouds.5 mph57%30.36 "HgN/A
10:20 PM46 °FClear.2 mph50%30.33 "Hg10 mi
9:50 PM46 °FPassing clouds.3 mph50%30.33 "HgN/A
9:20 PM48 °FPassing clouds.3 mph46%30.33 "HgN/A
8:50 PM50 °FSunny.2 mph40%30.30 "Hg10 mi
8:20 PM52 °FPassing clouds.5 mph35%30.30 "HgN/A
Weather by CustomWeather, © 2016

See weather overviewHow to use our weather pages